Regional Weather Roundup
Issued by NWS

Home | Current Version | Previous Version | Text Only | Print | Product List | Glossary On
Versions: 1 2 3 4 5 6 7 8 9 10 11 12 13 14 15 16 17 18 19 20 21 22 23 24 25 26 27 28
000
ASUS44 KBMX 250810
RWRAL

ALABAMA REGIONAL WEATHER ROUNDUP
NATIONAL WEATHER SERVICE BIRMINGHAM AL
200 AM CST SUN FEB 25 2018

NOTE: "FAIR" INDICATES FEW OR NO CLOUDS BELOW 12,000 FEET
WITH NO SIGNIFICANT WEATHER AND/OR OBSTRUCTIONS TO VISIBILITY.

THE REMARK "TC" DENOTES TEMPERATURE IN DEGREES CELSIUS.

ALZ001>011-014-016>018-020-250900-
NORTH ALABAMA

CITY           SKY/WX    TMP DP  RH WIND       PRES   REMARKS
MUSCLE SHOALS  LGT RAIN  55  51  86 W8        30.00F
HUNTSVILLE     LGT RAIN  57  56  96 NW25G36   29.98R FOG
DECATUR        HVY RAIN  56  55  97 NW18      29.99R FOG
HALEYVILLE     LGT RAIN  53  53 100 NW7       30.04R
GADSDEN        CLOUDY    69  65  86 S9G17     29.99F
$$

ALZ012-013-022-023-030>036-040>044-250900-
WEST CENTRAL ALABAMA

CITY           SKY/WX    TMP DP  RH WIND       PRES   REMARKS
TUSCALOOSA     MOCLDY    70  67  90 S12       29.97F
DEMOPOLIS        N/A     71  65  83 S7        30.00F
$$

ALZ015-024>026-033>036-041>044-250900-
CENTRAL ALABAMA

CITY           SKY/WX    TMP DP  RH WIND       PRES   REMARKS
BIRMINGHAM     CLOUDY    70  64  81 SW15G24   30.02S
MONTGOMERY     FAIR      69  66  90 S7        30.05F
SHELBY CO ARPT CLOUDY    70  66  87 S9G20     30.01F
MAXWELL AFB    FAIR      68  65  89 SW3       30.04S
GREENVILLE     CLOUDY    70  65  84 S7        30.05F
SELMA          PTSUNNY   70  64  83 S12       30.02F
PRATTVILLE     PTSUNNY   67  66  96 S5        30.04F
BESSEMER       CLOUDY    68  66  93 S10G20    30.01F
TALLADEGA      CLOUDY    70  64  80 S13G20    30.02F
PELL CITY      PTSUNNY   70  66  88 S12G20    30.01S
MARION         CLOUDY    68  68  98 S7        30.01F
SYLACAUGA      CLOUDY    71  66  85 SW16G22   30.04S
$$

ALZ019-021-028-029-037-038-045>048-250900-
EAST CENTRAL ALABAMA

CITY           SKY/WX    TMP DP  RH WIND       PRES   REMARKS
ANNISTON       CLOUDY    70  62  76 SW13      30.02S
ALEXANDER CITY CLOUDY    68  67  97 SW12G18   30.05F
AUBURN         CLOUDY    66  64  93 S9        30.08F
$$

ALZ051>064-250900-
SOUTHWEST ALABAMA

CITY           SKY/WX    TMP DP  RH WIND       PRES   REMARKS
MOBILE         FAIR      70  68  93 S6        30.06F
BROOKLEY FIELD CLOUDY    70  70 100 S3        30.07F
EVERGREEN      CLOUDY    71  67  87 S8        30.06F
$$

ALZ049-050-065>069-250900-
SOUTHEAST ALABAMA

CITY           SKY/WX    TMP DP  RH WIND       PRES   REMARKS
DOTHAN         CLOUDY    68  65  90 SW9       30.13F
OZARK          MOCLDY    68  66  94 S6        30.08F
TROY           CLOUDY    69  66  90 S9        30.08F
EUFAULA        MOCLDY    69  66  90 S5        30.08F
$$




USA.gov is the U.S. government's official web portal to all federal, state and local government web resources and services.